Change the Weather History Date:

Tuesday, August 20, 2013

  Actual Average (KLSE) Record (KLSE)
Temperature  
Mean Temperature 73 °F 71 °F  
Max Temperature 89 °F 81 °F 97 °F (1955)
Min Temperature 58 °F 61 °F 42 °F (1950)
Degree Days  
Heating Degree Days 0 0  
Month to date heating degree days 0  
Since 1 July heating degree days 5  
Cooling Degree Days 8 7  
Month to date cooling degree days 151  
Year to date cooling degree days 638  
Growing Degree Days 23 (Base 50)    
Moisture  
Dew Point 63 °F    
Average Humidity 70    
Maximum Humidity 100    
Minimum Humidity 43    
Precipitation  
Precipitation 0.00 in 0.14 in 3.03 in (1939)
Month to date precipitation 2.87  
Year to date precipitation 22.54  
Snow  
Snow 0.00 in 0.00 in 0.00 in (2002)
Month to date snowfall 0.0  
Since 1 July snowfall 0.0  
Snow Depth -    
Sea Level Pressure  
Sea Level Pressure 29.98 in    
Wind  
Wind Speed 4 mph (South)    
Max Wind Speed 16 mph    
Max Gust Speed 23 mph    
Visibility 8 miles    
Events      
T = Trace of Precipitation, MM = Missing Value Source: NWS Daily Summary

Daily Weather History Graph

Daily Weather History Graph

Search for Another Location

Airport or City:

Trip Planner

Search our weather history database for the weather conditions in past years. The results will help you decide how hot, cold, wet, or windy it might be!

Date:

Astronomy

Aug. 20, 2013 Rise Set
Actual Time 6:12 AM CDT 7:59 PM CDT
Civil Twilight 5:41 AM CDT 8:30 PM CDT
Nautical Twilight 5:04 AM CDT 9:08 PM CDT
Astronomical Twilight 4:23 AM CDT 9:48 PM CDT
Moon 7:28 PM CDT (8/20) 5:44 AM CDT (8/20)
Length of Visible Light 14h 48m
Length of Day
13h 46m
Full, 100% of the Moon is Illuminated
Aug 20
Full
Aug 20
Full
Aug 28
Last Quarter
Sep 5
New
Sep 12
First Quarter

Hourly Weather History & Observations

Time (CDT) Temp. Heat Index Dew Point Humidity Pressure Visibility Wind Dir Wind Speed Gust Speed Precip Events Conditions
12:15 AM 61.7 °F - 61.7 °F 100% 29.99 in 4.0 mi South 3.5 mph - N/A   Clear
12:35 AM 60.8 °F - 60.8 °F 100% 30.00 in 4.0 mi Calm Calm - N/A   Clear
12:55 AM 59.7 °F - 59.4 °F 99% 30.00 in 4.0 mi Calm Calm - N/A   Clear
1:15 AM 59.4 °F - 59.4 °F 100% 29.99 in 5.0 mi Calm Calm - N/A   Clear
1:35 AM 59.4 °F - 59.4 °F 100% 29.99 in 5.0 mi Calm Calm - N/A   Clear
1:55 AM 58.1 °F - 58.1 °F 100% 29.99 in 4.0 mi Calm Calm - N/A   Clear
2:15 AM 58.8 °F - 58.8 °F 100% 29.99 in 4.0 mi Calm Calm - N/A   Mostly Cloudy
2:35 AM 59.7 °F - 59.7 °F 100% 29.99 in 5.0 mi Calm Calm - N/A   Overcast
2:55 AM 61.2 °F - 61.2 °F 100% 29.98 in 5.0 mi Calm Calm - N/A   Mostly Cloudy
3:15 AM 60.1 °F - 60.1 °F 100% 29.99 in 4.0 mi Calm Calm - N/A   Mostly Cloudy
3:35 AM 61.0 °F - 61.0 °F 100% 29.99 in 5.0 mi Calm Calm - N/A   Overcast
3:55 AM 61.2 °F - 61.2 °F 100% 29.98 in 5.0 mi Calm Calm - N/A   Overcast
4:15 AM 59.4 °F - 59.4 °F 100% 29.98 in 5.0 mi Calm Calm - N/A   Scattered Clouds
4:35 AM 58.8 °F - 58.8 °F 100% 29.98 in 4.0 mi Calm Calm - N/A   Scattered Clouds
4:55 AM 59.0 °F - 59.0 °F 100% 29.98 in 3.0 mi Calm Calm - N/A   Mostly Cloudy
5:15 AM 58.8 °F - 58.8 °F 100% 29.98 in 4.0 mi Calm Calm - N/A   Overcast
5:35 AM 59.2 °F - 59.2 °F 100% 29.99 in 3.0 mi Calm Calm - N/A   Overcast
5:55 AM 59.9 °F - 59.9 °F 100% 29.99 in 5.0 mi Calm Calm - N/A   Overcast
6:15 AM 59.9 °F - 59.9 °F 100% 29.99 in 7.0 mi Calm Calm - N/A   Overcast
6:35 AM 60.1 °F - 60.1 °F 100% 30.00 in 7.0 mi Calm Calm - N/A   Overcast
6:55 AM 61.2 °F - 61.2 °F 100% 30.00 in 7.0 mi Calm Calm - N/A   Mostly Cloudy
7:15 AM 63.1 °F - 62.6 °F 98% 30.00 in 7.0 mi Calm Calm - N/A   Mostly Cloudy
7:35 AM 65.3 °F - 64.0 °F 96% 30.01 in 7.0 mi Calm Calm - N/A   Scattered Clouds
7:55 AM 67.8 °F - 65.3 °F 92% 30.01 in 10.0 mi Calm Calm - N/A   Scattered Clouds
8:15 AM 70.9 °F - 62.6 °F 75% 30.01 in 10.0 mi Calm Calm - N/A   Clear
8:35 AM 72.5 °F - 62.8 °F 71% 30.01 in 10.0 mi SSE 4.6 mph - N/A   Scattered Clouds
8:55 AM 74.7 °F - 62.2 °F 65% 30.01 in 10.0 mi South 3.5 mph - N/A   Scattered Clouds
9:15 AM 76.5 °F - 62.6 °F 62% 30.01 in 10.0 mi South 5.8 mph - N/A   Scattered Clouds
9:35 AM 76.8 °F - 63.3 °F 63% 30.01 in 10.0 mi SSW 4.6 mph - N/A   Mostly Cloudy
9:55 AM 79.2 °F - 63.3 °F 58% 30.01 in 10.0 mi SSW 5.8 mph - N/A   Overcast
10:15 AM 79.9 °F - 63.1 °F 56% 30.00 in 10.0 mi South 5.8 mph - N/A   Scattered Clouds
10:35 AM 81.3 °F 82.6 °F 63.0 °F 54% 30.00 in 10.0 mi South 5.8 mph - N/A   Scattered Clouds
10:55 AM 82.8 °F 83.8 °F 63.0 °F 51% 30.00 in 10.0 mi South 10.4 mph 18.4 mph N/A   Clear
11:15 AM 84.0 °F 85.2 °F 63.3 °F 50% 30.00 in 10.0 mi South 9.2 mph - N/A   Clear
11:35 AM 83.3 °F 84.4 °F 63.5 °F 51% 30.00 in 10.0 mi SSW 9.2 mph 17.3 mph N/A   Scattered Clouds
11:55 AM 84.7 °F 85.6 °F 63.3 °F 48% 29.99 in 10.0 mi South 12.7 mph 18.4 mph N/A   Scattered Clouds
12:15 PM 86.0 °F 87.1 °F 63.9 °F 47% 29.99 in 10.0 mi SW 9.2 mph - N/A   Clear
12:35 PM 86.5 °F 87.8 °F 64.0 °F 47% 29.98 in 10.0 mi SSW 9.2 mph 17.3 mph N/A   Clear
12:55 PM 86.9 °F 88.3 °F 64.2 °F 47% 29.98 in 10.0 mi South 9.2 mph 18.4 mph N/A   Scattered Clouds
1:15 PM 86.2 °F 87.3 °F 63.7 °F 47% 29.97 in 10.0 mi SSW 10.4 mph 20.7 mph N/A   Overcast
1:35 PM 88.0 °F 89.0 °F 63.5 °F 44% 29.97 in 10.0 mi SSW 13.8 mph 19.6 mph N/A   Scattered Clouds
1:55 PM 87.1 °F 88.3 °F 64.0 °F 46% 29.97 in 10.0 mi South 10.4 mph 18.4 mph N/A   Scattered Clouds
2:15 PM 86.2 °F 87.6 °F 64.2 °F 48% 29.97 in 10.0 mi SSW 11.5 mph 20.7 mph N/A   Mostly Cloudy
2:35 PM 86.9 °F 88.1 °F 64.0 °F 46% 29.96 in 10.0 mi South 16.1 mph 21.9 mph N/A   Overcast
2:55 PM 88.9 °F 90.0 °F 64.0 °F 43% 29.96 in 10.0 mi South 12.7 mph 17.3 mph N/A   Mostly Cloudy
3:15 PM 87.6 °F 89.1 °F 64.4 °F 46% 29.96 in 10.0 mi South 15.0 mph 20.7 mph N/A   Scattered Clouds
3:35 PM 87.4 °F 88.8 °F 64.6 °F 46% 29.95 in 10.0 mi South 10.4 mph 23.0 mph N/A   Scattered Clouds
3:55 PM 88.0 °F 89.6 °F 64.6 °F 46% 29.95 in 10.0 mi SSW 12.7 mph 20.7 mph N/A   Scattered Clouds
4:15 PM 86.7 °F 88.4 °F 64.8 °F 48% 29.95 in 10.0 mi SW 13.8 mph 17.3 mph N/A   Mostly Cloudy
4:35 PM 87.6 °F 89.1 °F 64.8 °F 46% 29.94 in 10.0 mi SSW 9.2 mph 18.4 mph N/A   Mostly Cloudy
4:55 PM 86.0 °F 87.9 °F 65.1 °F 50% 29.94 in 10.0 mi South 11.5 mph 18.4 mph N/A   Overcast
5:15 PM 85.5 °F 87.4 °F 65.3 °F 51% 29.94 in 10.0 mi South 8.1 mph 16.1 mph N/A   Mostly Cloudy
5:35 PM 86.2 °F 88.2 °F 65.5 °F 50% 29.94 in 10.0 mi South 10.4 mph 17.3 mph N/A   Mostly Cloudy
5:55 PM 85.8 °F 87.6 °F 65.3 °F 50% 29.94 in 10.0 mi SSW 8.1 mph - N/A   Mostly Cloudy
6:15 PM 85.1 °F 86.9 °F 65.3 °F 51% 29.94 in 10.0 mi South 10.4 mph 20.7 mph N/A   Mostly Cloudy
6:35 PM 84.6 °F 86.3 °F 65.3 °F 52% 29.94 in 10.0 mi SSW 10.4 mph 19.6 mph N/A   Mostly Cloudy
6:55 PM 83.8 °F 85.6 °F 65.3 °F 53% 29.94 in 10.0 mi SSW 9.2 mph - N/A   Mostly Cloudy
7:15 PM 83.3 °F 85.3 °F 65.7 °F 55% 29.94 in 10.0 mi South 11.5 mph - N/A   Mostly Cloudy
7:35 PM 82.4 °F 84.4 °F 65.7 °F 57% 29.94 in 10.0 mi South 5.8 mph - N/A   Overcast
7:55 PM 81.5 °F 83.7 °F 66.2 °F 60% 29.95 in 10.0 mi South 3.5 mph - N/A   Overcast
8:15 PM 81.0 °F 83.0 °F 66.0 °F 60% 29.95 in 10.0 mi South 4.6 mph - N/A   Overcast
8:35 PM 80.6 °F 82.5 °F 65.5 °F 60% 29.96 in 10.0 mi SSW 5.8 mph - N/A   Overcast
8:55 PM 80.6 °F 82.4 °F 65.3 °F 59% 29.96 in 10.0 mi South 6.9 mph - N/A   Overcast
9:15 PM 79.5 °F - 65.3 °F 62% 29.96 in 10.0 mi South 4.6 mph - N/A   Mostly Cloudy
9:35 PM 78.8 °F - 65.3 °F 63% 29.96 in 10.0 mi South 5.8 mph - N/A   Clear
9:55 PM 77.9 °F - 65.3 °F 65% 29.96 in 10.0 mi South 4.6 mph - N/A   Clear
10:15 PM 77.4 °F - 65.3 °F 66% 29.96 in 10.0 mi South 4.6 mph - N/A   Clear
10:35 PM 76.8 °F - 65.3 °F 67% 29.96 in 7.0 mi South 4.6 mph - N/A   Clear
10:55 PM 76.5 °F - 65.5 °F 69% 29.96 in 10.0 mi South 4.6 mph - N/A   Clear
11:15 PM 75.6 °F - 65.5 °F 71% 29.96 in 10.0 mi South 4.6 mph - N/A   Clear
11:35 PM 74.7 °F - 65.5 °F 73% 29.96 in 10.0 mi South 4.6 mph - N/A   Clear
11:55 PM 74.3 °F - 65.3 °F 73% 29.96 in 10.0 mi South 3.5 mph - N/A   Clear